Regional Weather Roundup
Issued by NWS Albany, NY

Home | Current Version | Previous Version | Graphics & Text | Print | Product List | Glossary Off
Versions: 1 2 3 4 5 6 7 8 9 10 11 12 13 14 15 16 17 18 19 20 21 22 23 24 25 26 27 28

000
ASUS41 KALY 161010
RWRALY

NEW YORK STATE HOURLY WEATHER ROUNDUP
NATIONAL WEATHER SERVICE ALBANY NY
600 AM EDT WED APR 16 2014

NOTE: "FAIR" INDICATES FEW OR NO CLOUDS BELOW 12,000 FEET WITH NO
SIGNIFICANT WEATHER AND/OR NO OBSTRUCTIONS TO VISIBILITY.

NYZ032-033-038>043-046>054-057>066-NYZ062>081-161100-
EAST


CITY           SKY/WX    TMP DP  RH WIND       PRES   REMARKS
ALBANY         MOCLDY    27  16  63 NW15      30.15R WCI  15
GLENS FALLS    CLOUDY   N/A N/A N/A NW10      30.16R
POUGHKEEPSIE   PTCLDY    30  15  53 NW12      30.13R WCI  20
NEWBURGH       CLEAR     27  18  69 N12G25    30.13R WCI  16
MONTGOMERY     PTCLDY    28  15  58 N9        30.14R WCI  19
WHITE PLAINS   PTCLDY    29  16  58 NW16G29   30.10R WCI  17
ISLIP          CLOUDY    32  21  64 NW17G29   30.07R WCI  21
NEW YORK CITY  PTCLDY    33  18  53 NW18G26   30.13R WCI  22
CENTRAL PARK   PTCLDY    32  17  54 VRB5G17   30.16R WCI  27
$$

NYZ005>009-017-018-044>046-055-056-161100-
CENTRAL


CITY           SKY/WX    TMP DP  RH WIND       PRES   REMARKS
FULTON         MOCLDY    26  16  65 N10       30.27R WCI  16
SYRACUSE       FLURRIES  24  20  84 N10       30.26R WCI  14
ROME           CLEAR     18  13  80 NW6       30.25R WCI  10
ELMIRA         MOCLDY    23   9  55 NW7       30.26R WCI  15
BINGHAMTON     PTCLDY    19  14  81 NW7       30.16R WCI  10
MONTICELLO     MOCLDY    21  14  73 NW17G25   30.11R WCI   7
$$

NYZ026>034-041>043-161100-
NORTH


CITY           SKY/WX    TMP DP  RH WIND       PRES   REMARKS
WATERTOWN      PTCLDY    23   9  55 N8        30.28R WCI  14
FORT DRUM      NOT AVBL
MASSENA        MOCLDY    20  11  68 W13       30.25R WCI   7
SARANAC LAKE   PTCLDY    13   7  77 VRB7      30.09R WCI   3
PLATTSBURGH    CLOUDY    22  12  65 NW9       30.18R WCI  12
$$

NYZ001>004-010>016-019>021-161100-
WEST


CITY           SKY/WX    TMP DP  RH WIND       PRES   REMARKS
NIAGARA FALLS  CLEAR     24  11  57 NW14      30.31R WCI  12
BUFFALO        CLEAR     24  11  57 NW12      30.31R WCI  13
DUNKIRK        CLEAR     23  14  68 CALM      30.34R
JAMESTOWN      CLEAR     16  10  79 CALM      30.26R
WELLSVILLE     CLEAR     17   8  67 NW12      30.21R WCI   4
ROCHESTER      PTCLDY    25  14  63 NW10      30.29R WCI  15
PENN YAN       FLURRIES  23  15  71 W10       30.26R WCI  12
$$

             KEY
       WCI = WIND CHILL INDEX
       VSB = VISIBILITY
       HX  = HEAT INDEX
$$



USA.gov is the U.S. government's official web portal to all federal, state and local government web resources and services.